Погода в Гари

Погода в Гари : погода сейчас, прогноз погоды и архив. Всё, что Вы хотите узнать о погоде в Гари!

Поиск расширенной информации на нашем сайте:

Другие новости

Новости СМИ2

Главная страница сайта

Новости сайта

02.10.2013

Напоминаем, что на нашем новом сайте вы можете получить высокодетализированные прогнозы погоды по пунктам России, СНГ и мира (включающие важные для авиации метеовеличины, такие как направление и скорость ветра, видимость, явления погоды, количество и форма облачности, нижняя и верхняя граница облачности), а также ознакомиться с разнообразными материалами по авиационной метеорологии и подборкой полезных ссылок на эту тему.

Сайт Метеоцентр.Азия посвящён разработке технологий оптимизации авиаметеорологического обслуживания, включая проектирование и перспективное создание нескольких автоматизированных авиаметеорологических систем:
- система выпуска высокодетальных прогностических карт явлений погоды для нижнего воздушного пространства по России и ближнему зарубежью;
- система верификации прогнозов TAF (выпускаемых синоптиками официальных АМСГ РФ и ближнего зарубежья) и AUTOTAF (выпускаемых сайтом Метеоцентр.Азия) - выявление ошибок, онлайн-сопоставление с фактической погодой METAR, автоматическое внесение коррективов в прогнозы при резком отклонении фактической погоды от прогноза, подсчёт оправдываемости прогнозов по элементам и в целом;
- система обработки, анализа и отображения авиаметеорологической информации для применения провайдерами метеорологической информации.

Рекомендуем: Перевод и легализация днепропетровск www.poseidontour.com.ua.

Погода в Гари - сегодня

Время (UTC), дата Ветер
(°,м/с) 
Видим.   Явления Облачность Т
(°С)
Тd
(°С)
f(%) Тe
(°С)
Pmin
(гПа)
dP
(гПа)
Po
(мм)
O2
(г/м3)
Тmin Tmax R s Состояние
почвы
06 24.05.17 220 (ЮЗ) 20000 м    9/9 600 м 
[Sc]
+10 +1.4 55 +10  1008.7  2.9  745  289           
09 24.05.17 210 (ЮЗ) 5{10}  20000 м    9/9 600 м 
[Cu med, cong]
+13.2 +2.8 49 +12  1004.9  -3.6  742  285           
12 24.05.17 250 (З) 3{12}  20000 м    9/4 600 м кучево-дожд., средняя 
[Cb calv|Ac und]
+14.6 +2.8 45 +15  1003.7  -1.1  741  283           
00 25.05.17 290 (З) 5{19}  20000 м    8/0 средняя 
[Ac trans]
+1.6 -5 61 -1  1008.9  2.2  745  299           
03 25.05.17 310 (СЗ) 9-12{14}  20000 м    6/3 600 м кучево-дожд., средняя 
[Cb calv|Ac trans]
+4.2 -2.9 60 +1  1011  2.1  746  296  +1.6        сухая 
12 25.05.17 310 (СЗ) 6{13}  20000 м    4/0 средняя 
[Ac trans]
+11.8 -4.8 31 +11  1016.4  1.5  750  290           
18 25.05.17 260 (З) 10 км    ясно 
+8 -6.6 35 +9  1018.4  1.1  752  295           
21 25.05.17 140 (ЮВ) 10 км    ясно 
+5.5 -6.9 40 +5  1019.4  0.8  752  298           
00 26.05.17 150 (ЮВ) 20000 м    ясно 
+3.7 -5.9 49 +2  1020.1  0.6  753  300           
03 26.05.17 160 (Ю) 6-11{11}  20000 м    ясно 
+10.4 -3.6 37 +9  1018.6  -1.2  752  292  +3.7        сухая 
21 26.05.17 200 (Ю) 5{12}  10 км    8/0 верхняя 
[Ci fib]
+15.6 +9 65 +15  1006.7  743  282           
00 27.05.17 180 (Ю) 10 км    6/0 средняя 
[Ac trans]
+13.2 +8.6 74 +13  1006.9  0.1  744  284           
03 27.05.17 180 (Ю) 20000 м    9/5 600 м кучево-дожд., средняя, верхняя 
[Cb cap|Ac trans|Ci fib]
+16.7 +10.3 66 +19  1006.3  -0.4  743  280  +12.9        сухая 
06 27.05.17 190 (Ю) 20000 м    6/3 600 м верхняя 
[Cu med, cong|Cs]
+19.8 +9.3 51 +20  1005.1  -1  743  277           
09 27.05.17 230 (ЮЗ) 4{10}  20000 м    8/4 600 м верхняя 
[Cu med, cong|Cs]
+24.5 +6.6 32 +25  1002.1  -2.7  740  273           
18 27.05.17 190 (Ю) 10 км    6/4 600 м средняя 
[Cu med, cong|Ac trans]
+17 +7.2 52 +18  999.2  -0.8  738  279           
21 27.05.17 160 (Ю) 10 км    6/3 600 м средняя 
[Cu med, cong|Ac trans]
+14.8 +9.8 72 +16  996.9  -2.4  736  280           
00 28.05.17 180 (Ю) 20000 м    9/9 600 м кучево-дожд. 
[Cb calv]
+13.1 +9.6 79 +15  996.3  -0.7  736  281           
03 28.05.17 350 (С) 8-11{12}  10 км  слаб. ливневой дождь  10/10 300 м кучево-дожд. 
[Cb cap]
+5.5 +5 97 +2  997.1  0.4  736  290  +5.4      влажная 
21 28.05.17 320 (СЗ) 10 км    9/0 средняя 
[Ac und]
+0 -1.2 92 -3  1008.1  0.8  744  300           
00 29.05.17 350 (С) 20000 м    8/0 средняя 
[Ac und]
-0.2 -6.2 64 -3  1008.7  0.6  744  301           
03 29.05.17 320 (СЗ) 20000 м    6/0 средняя 
[Ac trans]
+0.6 -6.7 58 -2  1008.7  744  300  -0.2        влажная 
06 29.05.17 330 (СЗ) 20000 м    8/8 600 м 
[Sc]
+2.7 -7.5 47 1009.3  0.6  745  298           
09 29.05.17 320 (СЗ) 20000 м    9/9 600 м 
[Sc]
+3.6 -8.4 41 +2  1009.3  0.1  745  297           
12 29.05.17 340 (С) 20000 м    8/8 600 м 
[Sc]
+4.5 -9.7 35 +3  1009.7  0.4  745  296           
Время (UTC), дата Ветер
(°,м/с) 
Видим.   Явления Облачность Т
(°С)
Тd
(°С)
f(%) Тe
(°С)
Pmin
(гПа)
dP
(гПа)
Po
(мм)
O2
(г/м3)
Тmin Tmax R s Состояние
почвы

Для получения пояснительной информации подведите курсор к названию столбца.

ПОГОДА в Гари - архив

Всё, что Вы хотите узнать о погоде в Гари - удобно и подробно!

Выберите нужную дату (начиная с 1 января 2015* года) и нажмите кнопку "Найти".
Будут отображены архивные сводки погоды по пункту Гари, начиная с указанной даты.


Отображать данные в формате CSV (для использования в таблицах Excel)


Внимание! Наш архив погоды предназначен исключительно для личного некоммерческого использования в познавательных целях. Если Вам необходимы официальные справки о состоянии погоды (для производственных, юридических, коммерческих и т.п. целей), обращайтесь в органы Росгидромета.

*Примечание: данная дата относится к архиву по метеостанциям СССР (Россия, СНГ, Балтия).
Архив по метеостанциям Зарубежной Европы и Азии (кроме Китая) хранится 10 дней, по другим регионам земного шара (Китай, Африка, Америка, Австралия, Океания) - 1 день.

Гари - район местоположения метеостанции


Название, широта, долгота, высота метеостанции:
Гари 59.4°ш. 62.3°д. 131 м над ур. моря [Российская Федерация]

Дополнительная информация

В oтличие oт бoльшинства пoгoдных сайтoв мы публикуем пoдрoбную метеoинфoрмацию в детальнoм прoфессиoнальнoм фoрмате.

Характеристики температуры и влажнoсти вoздуха измеряются на высoте 2 м в тени вдали oт зданий и деревьев.
Скoрoсть ветра измеряется на высoте 10 м (на урoвне рoста челoвека скoрoсть ветра ниже в 1.5-2 раза). Если метеoстанция нахoдится в гoрoде или в лесу, тo скoрoсть ветра занижена на 2-4 м/с пo сравнению с oткрытым местoм. Скoрoсть ветра над акватoриями крупных рек и oзёр, а также на вершинах хoлмoв на 2-5 м/с выше, чем в oбычных услoвиях.
Атмoсфернoе давление в разных тoчках местнoсти мoжет значительнo oтличаться oт давления на метеoстанции, в зависимoсти oт услoвий рельефа (при пoдъёме на 10 м давление пoнижается примернo на 1 мм рт.ст.).